Zurück zum Katalog

SCD 1

AktivWissenschaftLEO
NORAD 22490·PAYLOAD·🇧🇷 Brazil

Gestartet Feb 9, 1993 von Cape Canaveral Space Force Station

Loading…

Nächste Überflüge (nächste 24 Stunden)

TLE

AktuellSource: Space-Track

Epoche: Sep 14, 2026, 09:21 UTC

1 22490U 93009B   26257.39023684  .00000321  00000-0  37106-4 0  9992
2 22490  24.9708  16.7860 0041959   2.4907  38.8096 14.46148742774044

Verfolge SCD 1 in Echtzeit mit AllMySat

Download on the App Store